Date,TemperatureHighF,TemperatureAvgF,TemperatureLowF,DewpointHighF,DewpointAvgF,DewpointLowF,HumidityHigh,HumidityAvg,HumidityLow,PressureMaxIn,PressureMinIn,WindSpeedMaxMPH,WindSpeedAvgMPH,GustSpeedMaxMPH,PrecipitationSumIn
2014-1-1,48,35,27,29,25,21,81,68,45,30.40,30.16,2,0,0,0.00
2014-1-2,39,35,31,35,29,16,85,80,53,30.16,29.68,9,1,0,0.17
2014-1-3,31,25,19,14,6,-1,68,46,25,30.49,29.85,14,2,0,0.00
2014-1-4,34,24,16,18,12,9,77,64,43,30.51,30.29,1,0,0,0.00
2014-1-5,39,35,31,35,30,17,86,81,54,30.28,29.78,5,0,0,0.10
2014-1-6,39,29,10,36,16,-9,86,61,34,30.26,29.68,15,3,0,0.06
2014-1-7,24,14,4,5,-5,-10,60,44,25,30.52,30.27,6,1,0,0.00
2014-1-8,40,24,12,17,9,3,76,57,30,30.62,30.49,2,0,0,0.00
2014-1-9,45,31,21,21,14,6,82,55,20,30.59,30.48,2,0,0,0.00
2014-1-10,41,38,36,38,29,14,90,71,35,30.48,30.09,2,0,0,0.36
2014-1-11,52,45,40,48,41,37,88,87,86,30.08,29.60,6,0,0,1.70
2014-1-12,53,43,32,38,29,25,84,61,34,30.16,29.76,6,1,0,0.00
2014-1-13,48,38,27,39,31,23,84,76,58,30.15,29.95,1,0,0,0.09
2014-1-14,54,44,32,44,35,26,86,74,34,29.97,29.79,6,0,0,0.25
2014-1-15,52,36,28,34,28,23,86,74,41,29.97,29.86,5,0,0,0.01
2014-1-16,41,30,23,24,19,14,83,65,34,30.06,29.93,4,0,0,0.00
2014-1-17,48,34,22,25,21,17,81,62,37,30.00,29.83,5,0,0,0.01
2014-1-18,34,27,23,16,11,5,65,52,43,30.08,29.92,6,2,0,0.00
2014-1-19,28,25,22,18,15,14,79,67,57,29.98,29.93,0,0,0,0.00
2014-1-20,62,49,34,26,23,17,71,41,18,29.86,29.79,4,0,0,0.00
2014-1-21,47,35,27,27,22,11,81,60,40,29.88,29.55,13,2,0,0.00
2014-1-22,31,25,19,11,1,-10,54,37,16,30.09,29.89,7,2,0,0.00
2014-1-23,34,26,19,10,2,-7,62,37,24,30.47,30.09,15,2,0,0.00
2014-1-24,26,17,9,-1,-9,-14,48,32,17,30.63,30.26,7,1,0,0.00
2014-1-25,38,22,14,15,0,-4,48,39,24,30.25,29.76,5,0,0,0.00
2014-1-26,50,35,24,15,12,9,64,41,19,29.95,29.82,6,1,0,0.00
2014-1-30,33,27,18,11,7,4,70,47,31,30.32,30.26,2,0,0,0.00
2014-1-31,28,18,14,18,11,8,81,75,66,30.26,30.21,0,0,0,0.01
2014-2-1,48,31,23,35,22,18,82,70,35,30.25,30.10,1,0,0,0.00
2014-2-2,63,41,29,45,32,24,84,74,50,30.12,29.98,3,0,0,0.00
2014-2-3,60,49,41,55,35,-100,87,69,48,30.23,29.83,9,0,0,0.50
2014-2-4,41,38,36,32,30,27,85,72,62,30.37,30.11,0,0,0,0.10
2014-2-5,56,41,36,42,32,24,86,72,39,30.11,29.83,0,0,0,0.15
2014-2-6,40,35,29,24,20,16,66,55,39,30.33,30.12,0,0,0,0.00
2014-2-7,40,32,27,29,24,21,79,73,61,30.35,30.25,0,0,0,0.00
2014-2-8,49,39,34,30,28,26,78,64,46,30.28,30.10,0,0,0,0.00
2014-2-9,54,42,30,35,30,24,82,65,46,30.16,29.95,0,0,0,0.00
2014-2-10,38,35,33,32,30,27,83,80,69,30.24,30.03,0,0,0,0.13
2014-2-11,37,32,25,29,21,16,84,67,53,30.37,30.23,0,0,0,0.00
2014-2-12,27,25,21,22,15,9,83,69,47,30.42,29.86,0,0,0,0.00
2014-2-13,43,34,27,28,25,21,84,70,55,29.85,29.56,0,0,0,0.56
2014-2-14,54,38,23,29,23,18,81,58,29,29.80,29.67,0,0,0,0.40
2014-2-15,42,35,28,32,24,11,83,66,45,30.07,29.56,0,0,0,0.02
2014-2-16,49,34,26,27,20,15,78,60,36,30.16,30.03,0,0,0,0.00
2014-2-17,39,32,26,28,23,20,82,70,49,30.36,30.16,0,0,0,0.00
2014-2-18,60,41,26,30,25,18,84,58,20,30.23,30.08,0,0,0,0.00
2014-2-19,70,51,37,54,40,29,87,68,35,30.08,29.90,0,0,0,0.12
2014-2-20,66,53,42,51,42,36,82,66,50,30.16,29.90,0,0,0,0.00
2014-2-21,60,56,41,55,47,15,86,73,29,30.00,29.79,0,0,0,0.63
2014-2-22,62,45,33,32,23,10,79,50,13,30.20,30.00,0,0,0,0.00
2014-2-23,45,34,30,34,28,25,84,77,56,30.11,29.90,0,0,0,0.00
2014-2-24,58,45,32,34,23,10,76,47,18,30.11,29.90,0,0,0,0.00
2014-2-25,59,42,29,25,20,13,75,46,21,30.09,29.90,0,0,0,0.00
2014-2-26,48,37,26,24,19,13,70,50,28,29.95,29.77,0,0,0,0.00
2014-2-27,51,34,19,19,6,-8,80,41,9,29.99,29.79,0,0,0,0.00
2014-2-28,41,30,23,15,10,6,67,46,26,30.30,30.00,0,0,0,0.00
2014-3-1,36,31,27,27,16,13,79,53,40,30.36,30.24,0,0,0,0.00
2014-3-2,60,37,29,43,30,24,84,75,44,30.25,29.88,0,0,0,0.00
2014-3-3,59,42,27,47,34,20,85,74,55,30.25,29.75,12,2,0,0.22
2014-3-4,37,28,19,19,12,4,72,51,31,30.37,30.20,8,2,0,0.04
2014-3-5,51,36,27,26,20,15,75,53,35,30.28,30.11,4,0,0,0.01
2014-3-6,39,34,29,27,18,12,82,55,36,30.39,30.12,17,3,0,0.23
2014-3-7,39,34,31,34,29,26,85,83,81,30.11,29.98,5,1,0,1.29
2014-3-8,66,46,30,43,34,26,87,66,33,30.10,29.96,6,1,0,0.01
2014-3-9,61,44,35,39,33,26,84,69,28,30.09,30.00,4,0,0,0.00
2014-3-10,72,49,29,36,30,24,84,54,20,30.05,29.79,8,1,0,0.00
2014-3-11,76,54,32,39,31,24,84,51,15,29.83,29.65,5,0,0,0.00
2014-3-12,71,54,40,58,43,22,86,67,44,29.70,29.23,21,3,0,0.16
2014-3-13,46,37,29,22,8,-5,57,32,12,30.24,29.71,18,4,0,0.00
2014-3-14,60,39,23,24,15,7,76,45,14,30.31,30.07,7,1,0,0.00
2014-3-15,70,52,35,34,27,21,71,42,18,30.07,29.95,12,2,0,0.00
2014-3-16,48,42,38,39,35,29,84,75,47,30.02,29.79,8,2,0,0.76
2014-3-17,36,32,30,31,29,28,95,89,83,30.00,29.82,9,2,0,0.38
2014-3-18,43,36,30,39,33,28,95,91,84,30.19,29.97,5,1,0,0.15
2014-3-19,48,41,36,45,39,34,96,94,87,30.19,29.98,2,0,0,0.02
2014-3-20,65,49,34,45,30,22,97,59,22,30.06,29.96,15,2,0,0.01
2014-3-21,69,51,31,36,31,24,86,51,25,30.16,30.02,6,1,0,0.00
2014-3-22,71,50,38,44,39,34,86,68,38,30.03,29.91,1,0,0,0.00
2014-3-23,49,44,37,45,41,29,94,88,63,30.14,29.91,4,0,0,0.40
2014-3-24,50,39,28,31,25,19,86,60,36,30.27,30.05,7,1,0,0.00
2014-3-25,46,36,32,39,31,22,94,81,53,30.07,29.80,12,2,0,0.23
2014-3-26,48,36,28,22,17,13,73,48,26,30.32,30.07,10,3,0,0.01
2014-3-27,60,41,24,31,24,18,82,56,27,30.44,30.24,5,0,0,0.00
2014-3-28,60,52,37,52,46,31,85,79,70,30.25,30.08,5,0,0,0.00
2014-3-29,62,54,50,58,52,41,100,90,70,30.10,29.58,8,1,0,0.43
2014-3-30,58,47,42,38,28,20,70,49,28,30.02,29.68,19,5,0,0.00
2014-3-31,74,55,37,36,24,6,73,37,8,30.14,30.01,7,1,0,0.00
2014-4-1,81,58,39,43,37,33,85,54,18,30.12,29.97,7,1,0,0.00
2014-4-2,84,62,40,47,40,34,88,52,19,30.08,29.95,8,1,0,0.00
2014-4-3,76,59,48,55,47,38,87,67,39,30.10,29.85,4,0,0,0.09
2014-4-4,75,62,46,58,51,42,89,68,44,29.89,29.70,6,0,0,0.00
2014-4-5,68,58,50,46,35,28,72,45,22,30.05,29.81,6,1,0,0.00
2014-4-6,55,48,43,37,31,28,62,51,40,30.19,30.05,7,2,0,0.00
2014-4-7,51,46,44,46,43,36,91,86,59,30.07,29.67,7,0,0,1.64
2014-4-8,62,54,49,50,43,34,92,68,43,29.73,29.59,7,1,0,0.02
2014-4-9,64,53,42,41,36,27,80,54,26,30.11,29.72,8,2,0,0.00
2014-4-10,71,53,34,39,34,30,88,55,23,30.27,30.11,6,1,0,0.00
2014-4-11,76,58,40,44,39,35,86,55,24,30.18,30.02,13,1,0,0.00
2014-4-12,79,59,43,51,44,39,87,62,31,30.19,30.07,5,1,0,0.00
2014-4-13,79,63,47,56,49,43,86,63,38,30.15,30.02,5,1,0,0.00
2014-4-14,70,64,59,60,56,51,91,75,64,30.03,29.76,6,1,0,0.47
2014-4-15,64,53,33,59,47,23,94,81,57,30.03,29.60,11,2,0,0.50
2014-4-16,55,39,27,29,23,18,82,55,29,30.44,30.03,11,1,0,0.00
2014-4-17,60,44,29,32,27,23,84,57,27,30.57,30.40,13,1,0,0.00
2014-4-18,54,45,36,43,37,30,89,73,57,30.44,30.21,5,0,0,0.20
2014-4-19,55,49,44,49,44,41,90,85,69,30.23,30.12,5,1,0,0.55
2014-4-20,58,49,46,47,42,34,90,76,42,30.29,30.19,13,2,0,0.00
2014-4-21,73,55,37,45,40,33,87,61,31,30.19,29.91,4,0,0,0.00
2014-4-22,75,58,46,58,50,42,92,76,43,29.91,29.69,8,1,0,0.02
2014-4-23,73,60,48,52,34,21,89,44,16,29.97,29.73,15,2,0,0.00
2014-4-24,72,54,36,42,36,31,83,56,27,30.14,29.95,5,0,0,0.00
2014-4-25,62,51,45,49,44,40,86,77,57,29.95,29.80,5,1,0,0.46
2014-4-26,67,53,44,48,43,40,86,70,41,30.02,29.88,12,0,0,0.00
2014-4-27,84,63,44,53,47,41,89,62,25,30.00,29.87,4,0,0,0.00
2014-4-28,70,61,54,59,54,48,87,77,65,29.95,29.82,9,1,0,0.01
2014-4-29,54,52,51,51,49,47,91,88,79,30.02,29.84,5,1,0,0.07
2014-4-30,70,59,51,63,55,49,92,85,72,30.01,29.83,4,0,0,0.02
2014-5-1,76,66,53,58,53,43,89,66,38,29.87,29.74,5,0,0,0.00
2014-5-2,70,58,48,45,41,36,79,55,31,29.94,29.80,5,1,0,0.00
2014-5-3,75,61,48,47,43,37,86,57,26,29.93,29.83,12,1,0,0.00
2014-5-4,67,52,44,52,45,41,88,79,53,30.00,29.88,1,0,0,0.00
2014-5-5,70,57,49,56,51,46,88,79,57,29.98,29.78,2,0,0,0.00
2014-5-6,86,67,51,60,52,47,87,63,30,29.93,29.82,6,0,0,0.00
2014-5-7,80,66,56,62,56,51,87,72,46,30.09,29.91,2,0,0,0.00
2014-5-8,89,69,50,59,53,46,90,63,23,30.16,30.04,6,0,0,0.00
2014-5-9,85,67,52,64,57,49,88,72,45,30.12,30.03,4,0,0,0.00
2014-5-10,77,66,58,66,60,55,89,81,65,30.08,29.98,5,0,0,0.05
2014-5-11,84,66,54,62,56,52,91,75,37,30.13,30.03,4,0,0,0.00
2014-5-12,87,70,54,65,58,51,89,69,40,30.17,30.06,4,0,0,0.00
2014-5-13,89,73,59,68,61,56,89,70,42,30.12,30.02,4,0,0,0.00
2014-5-14,83,71,60,66,60,56,89,70,42,30.11,29.97,4,0,0,0.00
2014-5-15,70,65,55,64,60,51,90,86,68,30.00,29.80,5,0,0,2.45
2014-5-16,68,55,46,50,43,37,82,65,38,30.08,29.86,11,1,0,0.00
2014-5-17,67,54,40,49,42,36,89,67,38,30.17,30.07,5,0,0,0.00
2014-5-18,60,51,47,46,44,40,86,77,51,30.23,30.16,2,0,0,0.00
2014-5-19,71,56,43,52,46,40,93,70,41,30.30,30.19,3,0,0,0.00
2014-5-20,76,61,45,60,52,42,89,74,49,30.26,30.07,5,0,0,0.00
2014-5-21,86,70,53,64,57,50,90,67,39,30.08,29.92,7,1,0,0.00
2014-5-22,85,73,62,64,60,56,81,65,43,29.99,29.89,8,1,0,0.02
2014-5-23,70,66,62,64,59,50,87,79,58,30.05,29.91,5,0,0,0.01
2014-5-24,78,66,52,55,49,46,82,58,32,30.11,30.00,6,0,0,0.00
2014-5-25,70,60,52,59,53,48,86,78,52,30.17,30.09,0,0,0,0.00
2014-5-26,84,68,56,67,60,53,89,75,49,30.17,30.03,3,0,0,0.00
2014-5-27,84,71,60,68,62,57,90,76,54,30.08,29.95,7,0,0,0.00
2014-5-28,87,74,62,68,62,58,89,70,45,30.00,29.91,5,0,0,0.00
2014-5-29,86,70,59,66,62,55,90,76,44,30.07,29.94,8,0,0,0.59
2014-5-30,83,70,63,69,65,61,91,84,62,30.07,29.99,2,0,0,0.34
2014-5-31,78,68,61,64,61,58,90,79,53,30.17,30.07,4,0,0,0.04
2014-6-1,67,59,55,57,55,52,90,86,66,30.30,30.17,1,0,0,0.00
2014-6-2,65,58,54,56,54,51,89,86,73,30.25,30.11,1,0,0,0.00
2014-6-3,80,68,54,65,58,51,89,73,54,30.11,29.94,8,1,0,0.00
2014-6-4,88,74,59,68,62,56,89,69,43,29.94,29.73,6,1,0,0.00
2014-6-5,84,74,65,69,64,61,88,70,49,29.82,29.70,8,1,0,0.00
2014-6-6,78,66,59,61,58,54,88,76,50,29.92,29.81,3,0,0,0.00
2014-6-7,74,66,63,65,60,57,84,80,71,29.99,29.91,4,0,0,0.00
2014-6-8,77,69,66,69,64,61,91,85,75,29.93,29.80,1,0,0,0.78
2014-6-9,82,71,64,71,65,62,91,83,62,29.90,29.79,2,0,0,0.57
2014-6-10,87,74,62,72,65,60,92,76,52,29.92,29.83,5,0,0,0.01
2014-6-11,84,71,64,69,63,60,88,77,59,29.93,29.79,5,0,0,0.00
2014-6-12,83,70,65,67,64,61,90,80,54,29.90,29.79,2,0,0,0.00
2014-6-13,84,71,63,66,62,60,90,76,45,29.87,29.77,9,0,0,0.08
2014-6-14,84,70,60,66,61,57,90,77,45,30.03,29.88,2,0,0,0.00
2014-6-15,80,66,62,64,60,55,87,79,60,30.14,30.03,0,0,0,0.00
2014-6-16,89,72,62,70,64,59,89,78,44,30.17,30.06,4,0,0,0.08
2014-6-17,90,73,63,71,64,60,91,77,44,30.14,30.02,4,0,0,0.01
2014-6-18,92,74,64,72,65,59,91,76,43,30.10,30.02,6,0,0,0.00
2014-6-19,91,73,63,69,65,60,90,77,44,30.08,29.99,6,0,0,0.10
2014-6-20,76,67,63,68,63,61,91,89,77,30.04,29.92,2,0,0,0.27
2014-6-21,75,66,63,68,63,61,91,89,77,29.92,29.82,0,0,0,0.04
2014-6-22,86,73,64,66,63,60,89,73,43,29.94,29.80,3,0,0,0.00
2014-6-23,83,73,67,70,66,63,91,81,61,30.07,29.94,2,0,0,0.14
2014-6-24,80,73,67,71,66,63,88,81,67,30.09,29.97,4,0,0,0.12
2014-6-25,82,76,68,71,67,64,90,75,59,29.98,29.88,7,0,0,0.01
2014-6-26,87,76,68,67,65,63,88,70,45,29.98,29.88,3,0,0,0.00
2014-6-27,86,75,68,70,66,62,85,73,53,30.07,29.95,3,0,0,0.00
2014-6-28,82,74,68,69,66,64,87,78,63,30.18,30.06,4,0,0,0.00
2014-6-29,71,68,64,66,64,61,89,87,81,30.22,30.09,0,0,0,0.13
2014-6-30,83,73,65,71,66,62,91,80,61,30.09,29.92,2,0,0,0.00
2014-7-1,90,77,66,73,68,63,90,74,48,29.96,29.83,4,0,0,0.00
2014-7-2,93,80,68,72,68,63,90,71,44,29.92,29.85,0,0,0,0.00
2014-7-3,90,75,67,73,67,60,89,75,54,29.94,29.80,5,0,0,1.28
2014-7-4,78,68,64,60,56,51,82,67,49,30.18,29.93,2,0,0,0.01
2014-7-5,79,64,53,58,52,48,84,69,40,30.27,30.17,1,0,0,0.00
2014-7-6,82,66,54,63,56,51,88,74,46,30.17,30.03,0,0,0,0.00
2014-7-7,84,64,59,67,59,55,89,83,53,30.04,29.98,0,0,0,0.00
2014-7-9,82,75,70,70,64,-100,84,71,61,29.98,29.89,0,-20,0,0.00
2014-7-10,82,70,66,69,66,63,91,85,63,30.08,29.95,7,0,0,0.84
2014-7-11,85,73,64,71,66,62,91,79,55,30.18,30.06,3,0,0,0.00
2014-7-12,88,74,64,71,65,61,90,75,48,30.19,30.07,2,0,0,0.00
2014-7-13,88,74,65,72,67,62,89,79,55,30.10,29.98,4,0,0,0.09
2014-7-14,90,76,67,72,68,64,90,77,50,29.99,29.82,1,0,0,0.01
2014-7-15,87,74,66,71,66,61,90,78,54,29.85,29.71,4,0,0,0.03
2014-7-16,80,70,60,64,56,51,88,63,38,29.93,29.78,4,0,0,0.01
2014-7-17,82,68,55,59,54,50,86,63,39,30.07,29.92,5,0,0,0.00
2014-7-18,66,64,62,63,60,56,90,85,78,30.18,30.06,1,0,0,0.12
2014-7-19,69,64,60,64,60,57,91,88,79,30.16,30.09,1,0,0,0.16
2014-7-20,76,68,62,67,62,59,91,83,67,30.11,30.02,0,0,0,0.00
2014-7-21,74,72,71,69,68,67,89,85,83,30.11,30.06,1,0,0,0.01
2014-7-25,82,76,69,68,66,64,87,71,58,30.04,29.93,2,0,0,0.00
2014-7-26,87,75,64,69,65,62,92,73,45,30.00,29.89,0,0,0,0.00
2014-7-27,88,76,68,71,68,63,90,76,53,29.93,29.72,0,0,0,0.65
2014-7-28,83,73,64,67,61,56,91,68,40,29.88,29.75,12,1,0,0.21
2014-7-29,79,67,56,60,56,52,88,68,40,29.99,29.85,4,0,0,0.00
2014-7-30,80,66,54,60,54,50,85,69,43,30.07,29.99,0,0,0,0.00
2014-7-31,70,64,60,64,59,55,85,82,78,30.12,30.04,0,0,0,0.00
2014-8-10,67,66,65,66,65,64,98,98,97,30.09,30.03,1,0,0,1.72
2014-8-11,78,70,66,74,69,66,99,96,85,30.05,29.91,1,0,0,0.53
2014-8-12,81,73,68,75,71,67,98,92,75,29.91,29.73,2,0,0,0.74
2014-8-13,77,69,62,67,62,58,98,81,56,29.99,29.81,7,1,0,0.00
2014-8-14,80,66,54,66,59,53,97,80,53,30.04,29.93,2,0,0,0.00
2014-8-15,82,69,59,68,63,58,96,83,58,30.03,29.92,0,0,0,0.00
2014-8-16,83,71,61,70,65,60,97,83,54,30.02,29.94,5,0,0,0.00
2014-8-17,85,73,64,72,68,63,96,84,57,29.99,29.91,4,0,0,0.00
2014-8-18,83,71,67,76,69,66,97,92,76,29.92,29.74,2,0,0,0.11
2014-8-19,86,75,65,73,69,64,96,82,56,29.87,29.77,3,0,0,0.00
2014-8-20,85,74,65,75,69,64,96,84,65,30.01,29.86,2,0,0,0.00
2014-8-21,88,75,64,75,68,63,97,81,54,30.08,29.94,4,0,0,0.21
2014-8-22,89,76,67,75,71,67,98,85,56,30.03,29.90,5,0,0,0.01
2014-8-23,87,75,69,76,71,67,96,87,69,29.95,29.84,5,0,0,0.29
2014-8-24,75,70,66,70,68,64,97,93,80,30.09,29.91,5,0,0,0.23
2014-8-25,78,68,60,65,62,58,96,81,58,30.12,30.05,5,0,0,0.00
2014-8-26,79,66,57,64,60,56,95,82,57,30.15,30.06,7,0,0,0.00
2014-8-27,83,68,56,65,60,55,96,79,41,30.10,29.96,3,0,0,0.01
2014-8-28,88,73,60,74,67,59,96,82,53,30.00,29.92,5,0,0,0.00
2014-8-29,82,74,68,72,69,66,96,86,69,30.12,29.98,6,0,0,0.00
2014-8-30,85,73,67,75,70,66,97,88,63,30.17,30.05,2,0,0,0.00
2014-8-31,86,76,68,76,69,65,97,81,57,30.13,30.00,4,0,0,1.62
2014-9-1,88,74,66,72,66,63,88,76,46,30.09,29.98,2,0,0,0.00
2014-9-2,88,75,65,70,66,61,87,76,45,30.05,29.90,1,0,0,0.00
2014-9-3,86,74,65,69,65,60,86,73,52,30.08,29.94,3,0,0,0.00
2014-9-4,84,72,68,71,66,64,86,81,62,30.15,30.06,4,0,0,0.68
2014-9-5,85,73,67,71,66,63,88,79,55,30.19,30.04,5,0,0,0.00
2014-9-6,84,72,66,71,66,62,87,81,60,30.07,29.90,4,0,0,0.88
2014-9-7,82,72,66,68,65,62,88,78,61,30.06,29.94,6,1,0,0.01
2014-9-8,70,66,61,62,60,57,85,80,72,30.11,30.04,6,1,0,0.65
2014-9-9,76,68,62,64,61,58,85,79,66,30.13,30.04,2,0,0,0.00
2014-9-10,75,69,65,66,63,61,86,81,69,30.11,29.99,0,0,0,0.00
2014-9-11,84,72,64,71,65,59,86,78,60,30.02,29.91,2,0,0,0.01
2014-9-12,83,73,66,73,68,61,95,83,66,30.05,29.95,2,0,0,0.33
2014-9-13,81,70,64,74,67,58,96,89,74,30.17,29.99,3,0,0,1.24
2014-9-14,68,63,60,61,59,56,92,85,73,30.26,30.15,4,0,0,0.00
2014-9-15,69,65,61,65,62,58,94,89,83,30.20,30.10,0,0,0,0.02
2014-9-16,80,69,63,71,66,62,97,90,70,30.09,29.89,1,0,0,0.07
2014-9-17,71,64,60,65,61,58,95,89,78,29.97,29.89,3,0,0,0.01
2014-9-18,75,65,59,66,62,57,95,89,67,30.02,29.91,0,0,0,0.00